Fredericksburg, VA

10:11 PM EST on December 13, 2019 (GMT -0500)
Shannon

Weather History for KEZF - October, 2019

Change the Weather History Date:

Friday, October 4, 2019

  Actual Average (KNYG) Record (KNYG)
Temperature  
Mean Temperature 69 °F -  
Max Temperature 79 °F 69 °F 84 °F (2018)
Min Temperature 58 °F 51 °F 41 °F (1996)
Cooling Degree Days 4    
Growing Degree Days 19 (Base 50)    
Moisture  
Dew Point 60 °F    
Average Humidity 67    
Maximum Humidity 99    
Minimum Humidity 36    
Precipitation  
Precipitation 0.00 in - - ()
Sea Level Pressure  
Sea Level Pressure 30.07 in    
Wind  
Wind Speed 6 mph ()    
Max Wind Speed 14 mph    
Max Gust Speed 24 mph    
Visibility 9.4 miles    
Events      
Averages and records for this station are not official NWS values.
T = Trace of Precipitation, MM = Missing Value Source: Averaged Metar Reports

Daily Weather History Graph

Daily Weather History Graph

Search for Another Location

Airport or City:

Astronomy

Oct. 04, 2019 Rise Set
Actual Time 7:08 AM EDT 6:48 PM EDT
Civil Twilight 6:41 AM EDT 7:14 PM EDT
Nautical Twilight 6:11 AM EDT 7:45 PM EDT
Astronomical Twilight 5:40 AM EDT 8:16 PM EDT
Moon 1:33 PM EDT (10/4) 11:20 PM EDT (10/4)
Length of Visible Light 12h 33m
Length of Day
11h 40m
Waxing Crescent, 39% of the Moon is Illuminated
Oct 4
Waxing Crescent
Oct 5
First Quarter
Oct 13
Full
Oct 21
Last Quarter
Oct 27
New

Hourly Weather History & Observations

Time (EDT) Temp. Dew Point Humidity Pressure Visibility Wind Dir Wind Speed Gust Speed Precip Events Conditions
12:15 AM 73.9 °F 72.5 °F 95% 29.93 in 10.0 mi SSE 3.5 mph - N/A   Overcast
12:35 AM 73.9 °F 72.5 °F 95% 29.93 in 10.0 mi Calm Calm - N/A   Overcast
12:55 AM 73.9 °F 72.7 °F 96% 29.93 in 10.0 mi Calm Calm - N/A   Overcast
1:15 AM 74.3 °F 72.7 °F 95% 29.92 in 10.0 mi South 3.5 mph - N/A   Overcast
1:35 AM 74.3 °F 72.9 °F 95% 29.92 in 10.0 mi Calm Calm - N/A   Overcast
1:55 AM 74.3 °F 72.9 °F 95% 29.92 in 7.0 mi SSW 3.5 mph - N/A   Overcast
2:15 AM 73.9 °F 72.9 °F 96% 29.91 in 7.0 mi South 3.5 mph - N/A   Overcast
2:35 AM 73.8 °F 72.9 °F 97% 29.91 in 7.0 mi SSW 3.5 mph - N/A   Overcast
2:55 AM 73.6 °F 72.9 °F 98% 29.91 in 7.0 mi WSW 3.5 mph - N/A   Overcast
3:15 AM 73.4 °F 72.9 °F 98% 29.93 in 7.0 mi NW 5.8 mph - N/A   Overcast
3:35 AM 73.4 °F 72.9 °F 98% 29.93 in 7.0 mi NNW 8.1 mph - N/A   Overcast
3:55 AM 73.4 °F 72.7 °F 98% 29.94 in 7.0 mi NNW 4.6 mph - N/A   Overcast
4:15 AM 73.0 °F 72.5 °F 98% 29.94 in 7.0 mi NNW 4.6 mph - N/A   Overcast
4:35 AM 72.5 °F 72.1 °F 99% 29.94 in 7.0 mi NNW 3.5 mph - N/A   Mostly Cloudy
4:55 AM 72.7 °F 72.0 °F 98% 29.95 in 7.0 mi NNW 5.8 mph - N/A   Overcast
5:15 AM 72.5 °F 72.0 °F 98% 29.96 in 7.0 mi North 5.8 mph - N/A   Overcast
5:35 AM 72.5 °F 72.0 °F 98% 29.96 in 7.0 mi NNW 5.8 mph - N/A   Mostly Cloudy
5:55 AM 72.3 °F 71.8 °F 98% 29.97 in 7.0 mi North 4.6 mph - N/A   Clear
6:15 AM 72.9 °F 70.5 °F 92% 29.98 in 10.0 mi North 10.4 mph - N/A   Scattered Clouds
6:35 AM 72.7 °F 70.0 °F 91% 30.00 in 10.0 mi North 6.9 mph - N/A   Scattered Clouds
6:55 AM 72.5 °F 67.5 °F 84% 30.01 in 10.0 mi North 6.9 mph 19.6 mph N/A   Clear
7:15 AM 72.0 °F 66.2 °F 82% 30.01 in 10.0 mi North 8.1 mph - N/A   Clear
7:35 AM 71.6 °F 64.4 °F 78% 30.02 in 10.0 mi North 11.5 mph 24.2 mph N/A   Clear
7:55 AM 71.2 °F 64.0 °F 78% 30.03 in 10.0 mi North 10.4 mph - N/A   Clear
8:15 AM 71.6 °F 62.8 °F 74% 30.04 in 10.0 mi North 6.9 mph - N/A   Clear
8:35 AM 71.8 °F 62.6 °F 73% 30.05 in 10.0 mi North 5.8 mph 16.1 mph N/A   Clear
8:55 AM 72.1 °F 61.2 °F 68% 30.06 in 10.0 mi North 11.5 mph 17.3 mph N/A   Clear
9:15 AM 72.7 °F 60.8 °F 66% 30.07 in 10.0 mi North 8.1 mph 16.1 mph N/A   Clear
9:35 AM 73.6 °F 61.0 °F 65% 30.07 in 10.0 mi North 9.2 mph 16.1 mph N/A   Clear
9:55 AM 73.4 °F 60.4 °F 64% 30.08 in 10.0 mi NNE 11.5 mph 19.6 mph N/A   Clear
10:15 AM 73.8 °F 60.6 °F 63% 30.08 in 10.0 mi North 12.7 mph 19.6 mph N/A   Clear
10:35 AM 74.5 °F 59.9 °F 60% 30.09 in 10.0 mi NNE 13.8 mph 20.7 mph N/A   Clear
11:35 AM 75.4 °F 57.9 °F 54% 30.09 in 10.0 mi North 10.4 mph 18.4 mph N/A   Scattered Clouds
11:55 AM 75.6 °F 57.0 °F 52% 30.10 in 10.0 mi NNW 11.5 mph 17.3 mph N/A   Scattered Clouds
12:15 PM 76.3 °F 57.6 °F 52% 30.10 in 10.0 mi NNE 11.5 mph 20.7 mph N/A   Scattered Clouds
12:35 PM 76.8 °F 57.6 °F 51% 30.10 in 10.0 mi NNE 8.1 mph - N/A   Clear
12:55 PM 76.8 °F 56.3 °F 49% 30.10 in 10.0 mi NW 6.9 mph 18.4 mph N/A   Scattered Clouds
1:15 PM 77.2 °F 55.4 °F 47% 30.10 in 10.0 mi NNW 10.4 mph 21.9 mph N/A   Scattered Clouds
1:35 PM 77.4 °F 56.5 °F 48% 30.10 in 10.0 mi North 11.5 mph 17.3 mph N/A   Scattered Clouds
1:55 PM 78.1 °F 55.6 °F 46% 30.09 in 10.0 mi North 11.5 mph 19.6 mph N/A   Scattered Clouds
2:15 PM 79.2 °F 54.9 °F 43% 30.09 in 10.0 mi North 10.4 mph 17.3 mph N/A   Clear
2:35 PM 79.3 °F 53.8 °F 41% 30.09 in 10.0 mi NNE 11.5 mph - N/A   Scattered Clouds
2:55 PM 79.3 °F 54.1 °F 42% 30.09 in 10.0 mi NNW 10.4 mph 19.6 mph N/A   Scattered Clouds
3:15 PM 79.0 °F 53.1 °F 40% 30.09 in 10.0 mi North 13.8 mph 21.9 mph N/A   Scattered Clouds
3:35 PM 78.8 °F 50.7 °F 37% 30.09 in 10.0 mi North 8.1 mph 18.4 mph N/A   Clear
3:55 PM 79.0 °F 50.2 °F 36% 30.09 in 10.0 mi NNW 13.8 mph 19.6 mph N/A   Clear
4:15 PM 78.8 °F 50.0 °F 36% 30.10 in 10.0 mi North 6.9 mph 17.3 mph N/A   Clear
4:35 PM 78.1 °F 48.7 °F 36% 30.10 in 10.0 mi North 12.7 mph 20.7 mph N/A   Clear
4:55 PM 77.9 °F 50.2 °F 38% 30.11 in 10.0 mi North 8.1 mph 16.1 mph N/A   Clear
5:15 PM 77.2 °F 50.0 °F 38% 30.11 in 10.0 mi NNW 6.9 mph - N/A   Clear
5:35 PM 76.3 °F 50.7 °F 41% 30.12 in 10.0 mi NNW 10.4 mph 19.6 mph N/A   Clear
5:55 PM 75.4 °F 50.0 °F 41% 30.12 in 10.0 mi North 11.5 mph 16.1 mph N/A   Clear
6:15 PM 75.0 °F 50.2 °F 42% 30.13 in 10.0 mi North 9.2 mph 16.1 mph N/A   Clear
6:35 PM 73.9 °F 50.4 °F 43% 30.13 in 10.0 mi NNE 4.6 mph - N/A   Clear
6:55 PM 72.5 °F 51.1 °F 47% 30.14 in 10.0 mi NNE 6.9 mph - N/A   Clear
7:15 PM 71.4 °F 51.1 °F 49% 30.14 in 10.0 mi NNE 8.1 mph - N/A   Clear
7:35 PM 70.7 °F 51.1 °F 50% 30.15 in 10.0 mi North 8.1 mph - N/A   Clear
7:55 PM 69.8 °F 51.3 °F 52% 30.16 in 10.0 mi North 6.9 mph - N/A   Clear
8:15 PM 68.9 °F 51.8 °F 54% 30.17 in 10.0 mi North 5.8 mph - N/A   Clear
8:35 PM 68.2 °F 51.8 °F 56% 30.18 in 10.0 mi NNE 6.9 mph - N/A   Clear
8:55 PM 67.5 °F 52.0 °F 58% 30.19 in 10.0 mi NNE 5.8 mph - N/A   Clear
9:15 PM 66.6 °F 52.3 °F 60% 30.20 in 10.0 mi NE 4.6 mph - N/A   Clear
9:35 PM 66.4 °F 52.5 °F 61% 30.22 in 10.0 mi NE 10.4 mph 17.3 mph N/A   Clear
9:55 PM 65.5 °F 52.5 °F 63% 30.24 in 10.0 mi NE 10.4 mph 16.1 mph N/A   Clear
10:15 PM 64.2 °F 50.4 °F 61% 30.25 in 10.0 mi NE 9.2 mph 18.4 mph N/A   Clear
10:35 PM 63.0 °F 49.5 °F 61% 30.27 in 10.0 mi NE 10.4 mph 20.7 mph N/A   Clear
10:55 PM 61.7 °F 48.9 °F 63% 30.28 in 10.0 mi NNE 8.1 mph - N/A   Clear
11:15 PM 60.3 °F 47.1 °F 62% 30.30 in 10.0 mi NE 11.5 mph 18.4 mph N/A   Clear
11:35 PM 59.0 °F 46.4 °F 63% 30.30 in 10.0 mi NE 8.1 mph - N/A   Clear
11:55 PM 58.1 °F 45.5 °F 63% 30.31 in 10.0 mi NE 8.1 mph - N/A   Clear